| time (UTC) | temp F | wind direction | speed MPH | gust MPH | rain 1hr in | rain 24hr in | rain mn in | humidity % | barometer mb |
| 20260505061530 | 42 | 212 | 17.0 | 24.0 | 0.00 | 0.13 | 0.00 | 88 | 1007.2 |
| 20260505060029 | 42 | 192 | 14.0 | 25.0 | 0.00 | 0.13 | 0.00 | 88 | 1006.9 |
| 20260505054526 | 42 | 226 | 14.0 | 21.0 | 0.00 | 0.13 | 0.00 | 88 | 1006.7 |
| 20260505053022 | 42 | 209 | 15.0 | 22.0 | 0.00 | 0.13 | 0.00 | 88 | 1006.3 |
| 20260505051523 | 41 | 185 | 14.0 | 24.0 | 0.00 | 0.13 | 0.00 | 88 | 1006.1 |
| 20260505041521 | 43 | 215 | 16.0 | 25.0 | 0.00 | 0.13 | 0.00 | 85 | 1005.3 |
| 20260505040010 | 43 | 221 | 16.0 | 25.0 | 0.00 | 0.13 | 0.00 | 86 | 1005.2 |
| 20260505034509 | 43 | 217 | 14.0 | 22.0 | 0.00 | 0.13 | 0.00 | 84 | 1005.3 |
| 20260505033004 | 42 | 223 | 14.0 | 20.0 | 0.00 | 0.13 | 0.00 | 86 | 1005.1 |
| 20260505031601 | 43 | 218 | 15.0 | 21.0 | 0.00 | 0.13 | 0.00 | 85 | 1004.7 |
| 20260505030059 | 43 | 217 | 14.0 | 24.0 | 0.00 | 0.13 | 0.00 | 84 | 1004.7 |
| 20260505024557 | 43 | 211 | 13.0 | 27.0 | 0.00 | 0.13 | 0.13 | 83 | 1004.5 |
| 20260505023055 | 44 | 211 | 13.0 | 25.0 | 0.00 | 0.13 | 0.13 | 83 | 1004.2 |
| 20260505021554 | 44 | 218 | 15.0 | 31.0 | 0.00 | 0.13 | 0.13 | 82 | 1003.9 |
| 20260505020052 | 44 | 211 | 17.0 | 28.0 | 0.00 | 0.13 | 0.13 | 82 | 1003.5 |
| 20260505014652 | 44 | 237 | 17.0 | 32.0 | 0.00 | 0.13 | 0.13 | 80 | 1003.6 |
| 20260505013052 | 44 | 189 | 16.0 | 25.0 | 0.00 | 0.13 | 0.13 | 79 | 1003.4 |
| 20260505011549 | 45 | 208 | 18.0 | 27.0 | 0.00 | 0.13 | 0.13 | 77 | 1003.2 |
| 20260505010048 | 46 | 217 | 15.0 | 27.0 | 0.00 | 0.13 | 0.13 | 75 | 1003.0 |
| 20260505004547 | 46 | 198 | 19.0 | 32.0 | 0.00 | 0.15 | 0.13 | 75 | 1002.9 |
| 20260505003044 | 44 | 207 | 16.0 | 29.0 | 0.00 | 0.15 | 0.13 | 77 | 1002.8 |
| 20260505001556 | 44 | 209 | 14.0 | 25.0 | 0.00 | 0.15 | 0.13 | 75 | 1002.8 |
| 20260505000053 | 44 | 209 | 16.0 | 22.0 | 0.00 | 0.15 | 0.13 | 75 | 1002.5 |
| 20260504234558 | 44 | 199 | 12.0 | 21.0 | 0.00 | 0.17 | 0.13 | 76 | 1002.3 |
| 20260504233040 | 44 | 215 | 10.0 | 16.0 | 0.00 | 0.17 | 0.13 | 73 | 1002.2 |
| 20260504231538 | 45 | 224 | 12.0 | 22.0 | 0.00 | 0.17 | 0.13 | 71 | 1002.1 |
| 20260504230036 | 45 | 222 | 10.0 | 18.0 | 0.00 | 0.23 | 0.13 | 71 | 1002.0 |
| 20260504224541 | 45 | 172 | 11.0 | 18.0 | 0.00 | 0.23 | 0.13 | 71 | 1002.0 |
| 20260504223041 | 45 | 208 | 12.0 | 23.0 | 0.00 | 0.23 | 0.13 | 71 | 1001.9 |
| 20260504221536 | 46 | 227 | 13.0 | 21.0 | 0.00 | 0.23 | 0.13 | 71 | 1001.8 |
| 20260504220032 | 45 | 224 | 12.0 | 20.0 | 0.00 | 0.28 | 0.13 | 74 | 1001.7 |
| 20260504214530 | 46 | 224 | 16.0 | 23.0 | 0.00 | 0.28 | 0.13 | 72 | 1001.5 |
| 20260504213047 | 46 | 193 | 11.0 | 19.0 | 0.00 | 0.28 | 0.13 | 74 | 1001.3 |
| 20260504211526 | 47 | 214 | 12.0 | 17.0 | 0.00 | 0.28 | 0.13 | 73 | 1001.1 |
| 20260504210027 | 45 | 217 | 14.0 | 21.0 | 0.00 | 0.32 | 0.13 | 76 | 1000.9 |
| 20260504204523 | 45 | 193 | 15.0 | 21.0 | 0.00 | 0.32 | 0.13 | 77 | 1000.6 |
| 20260504203021 | 46 | 170 | 12.0 | 24.0 | 0.00 | 0.32 | 0.13 | 78 | 1000.4 |
| 20260504201525 | 46 | 224 | 14.0 | 23.0 | 0.00 | 0.32 | 0.13 | 79 | 1000.4 |
| 20260504200019 | 46 | 215 | 12.0 | 19.0 | 0.00 | 0.35 | 0.13 | 78 | 1000.1 |
| 20260504194519 | 47 | 221 | 15.0 | 26.0 | 0.00 | 0.35 | 0.13 | 76 | 999.8 |
| 20260504193014 | 46 | 230 | 11.0 | 19.0 | 0.00 | 0.35 | 0.13 | 80 | 999.6 |
| 20260504191513 | 45 | 240 | 14.0 | 23.0 | 0.00 | 0.35 | 0.13 | 81 | 999.6 |
| 20260504190012 | 46 | 249 | 14.0 | 25.0 | 0.00 | 0.35 | 0.13 | 80 | 999.3 |
| 20260504184513 | 46 | 237 | 16.0 | 27.0 | 0.00 | 0.35 | 0.13 | 80 | 999.2 |
| 20260504183006 | 44 | 257 | 15.0 | 22.0 | 0.00 | 0.35 | 0.13 | 83 | 999.2 |
| 20260504181502 | 43 | 219 | 14.0 | 21.0 | 0.00 | 0.35 | 0.13 | 85 | 999.1 |
| 20260504180001 | 43 | 233 | 15.0 | 25.0 | 0.00 | 0.35 | 0.13 | 86 | 999.0 |
| 20260504174616 | 42 | 240 | 16.0 | 27.0 | 0.00 | 0.35 | 0.13 | 86 | 998.7 |
| 20260504173058 | 42 | 238 | 17.0 | 30.0 | 0.00 | 0.35 | 0.13 | 87 | 998.5 |
| 20260504171554 | 42 | 244 | 19.0 | 27.0 | 0.00 | 0.35 | 0.13 | 88 | 998.3 |
| 20260504090119 | 36 | 303 | 16.0 | 23.0 | 0.02 | 0.27 | 0.06 | 95 | 978.9 |
| 20260504081547 | 37 | 261 | 11.0 | 16.0 | 0.03 | 0.25 | 0.04 | 95 | 977.1 |